WZZ45ER EPKT-LDSP

Flight info

Callsign WZZ45ER
Flight time N/A
Altitude 36000
Route TUSIN DCT UPLAV DCT LEDVA DCT TISKO DCT PETOV DCT NIVES DCT NUPSO
Aircraft A20N/M-SDE2E3FGHIRWXY/LB1

Departure

Time 2026-05-01 08:29
Airport Katowice Wojciech Korfanty International Airport (EPKT)

Arrival

Time N/A
Airport Split Saint Jerome Airport (LDSP)
Time Latitude Longitude Altitude Speed Heading
2026-05-01 08:02 50.47144 19.08245 1005 ft 0 kts 180°
2026-05-01 08:19 50.47173 19.08246 983 ft 3 kts 183°
2026-05-01 08:19 50.47193 19.08248 984 ft 3 kts 183°
2026-05-01 08:19 50.47214 19.08249 986 ft 3 kts 172°
2026-05-01 08:19 50.47230 19.08242 984 ft 3 kts 121°
2026-05-01 08:20 50.47233 19.08234 987 ft 0 kts 91°
2026-05-01 08:24 50.47233 19.08242 988 ft 3 kts 90°
2026-05-01 08:24 50.47233 19.08299 984 ft 7 kts 90°
2026-05-01 08:24 50.47233 19.08395 987 ft 10 kts 90°
2026-05-01 08:24 50.47234 19.08517 988 ft 12 kts 90°
2026-05-01 08:25 50.47234 19.08658 987 ft 12 kts 87°
2026-05-01 08:25 50.47232 19.08803 988 ft 14 kts 90°
2026-05-01 08:25 50.47232 19.08965 990 ft 16 kts 90°
2026-05-01 08:25 50.47232 19.09147 991 ft 17 kts 91°
2026-05-01 08:26 50.47231 19.09329 995 ft 17 kts 90°
2026-05-01 08:26 50.47231 19.09520 996 ft 18 kts 90°
2026-05-01 08:26 50.47230 19.09686 998 ft 14 kts 90°
2026-05-01 08:26 50.47229 19.09840 999 ft 14 kts 91°
2026-05-01 08:27 50.47232 19.09996 1000 ft 15 kts 80°
2026-05-01 08:27 50.47293 19.10135 1001 ft 16 kts 51°
2026-05-01 08:27 50.47365 19.10279 1002 ft 16 kts 52°
2026-05-01 08:27 50.47433 19.10411 1003 ft 13 kts 46°
2026-05-01 08:28 50.47517 19.10445 1003 ft 14 kts 359°
2026-05-01 08:28 50.47594 19.10375 1003 ft 14 kts 291°
2026-05-01 08:28 50.47596 19.10200 1002 ft 30 kts 270°
2026-05-01 08:28 50.47597 19.09468 996 ft 102 kts 270°
2026-05-01 08:29 50.47602 19.08052 1032 ft 150 kts 270°
2026-05-01 08:29 50.47610 19.06497 1792 ft 141 kts 272°
2026-05-01 08:29 50.47617 19.04926 2463 ft 145 kts 272°
2026-05-01 08:29 50.47618 19.03307 3071 ft 156 kts 273°
2026-05-01 08:30 50.47578 19.01489 3559 ft 180 kts 259°
2026-05-01 08:30 50.46889 18.99747 4087 ft 206 kts 223°
2026-05-01 08:30 50.45575 18.98604 4538 ft 232 kts 201°
2026-05-01 08:30 50.43957 18.97768 5057 ft 256 kts 198°
2026-05-01 08:31 50.42192 18.96857 5598 ft 277 kts 200°
2026-05-01 08:31 50.40353 18.95764 6398 ft 287 kts 202°
2026-05-01 08:31 50.38483 18.94537 7247 ft 294 kts 204°
2026-05-01 08:31 50.36615 18.93247 8131 ft 299 kts 204°
2026-05-01 08:32 50.34696 18.91896 9011 ft 306 kts 204°
2026-05-01 08:32 50.32730 18.90507 9901 ft 312 kts 204°
2026-05-01 08:32 50.30727 18.89095 10675 ft 321 kts 203°
2026-05-01 08:32 50.28615 18.87615 11022 ft 344 kts 203°
2026-05-01 08:33 50.26344 18.86029 11342 ft 366 kts 203°
2026-05-01 08:33 50.24019 18.84408 12050 ft 373 kts 203°
2026-05-01 08:33 50.21625 18.82740 12877 ft 378 kts 203°
2026-05-01 08:33 50.19202 18.81055 13661 ft 383 kts 203°
2026-05-01 08:34 50.16739 18.79344 14420 ft 389 kts 203°
2026-05-01 08:34 50.14286 18.77640 15115 ft 393 kts 203°
2026-05-01 08:34 50.11788 18.75906 15783 ft 398 kts 202°
2026-05-01 08:34 50.09233 18.74136 16461 ft 403 kts 202°
2026-05-01 08:35 50.06650 18.72348 17133 ft 408 kts 202°
2026-05-01 08:35 50.04039 18.70543 17819 ft 412 kts 202°
2026-05-01 08:35 50.01431 18.68743 18503 ft 416 kts 202°
2026-05-01 08:35 49.98760 18.66901 19079 ft 421 kts 202°
2026-05-01 08:36 49.96059 18.65043 19652 ft 426 kts 201°
2026-05-01 08:36 49.93340 18.63174 20218 ft 430 kts 201°
2026-05-01 08:36 49.90575 18.61276 20778 ft 435 kts 201°
2026-05-01 08:36 49.87824 18.59380 21320 ft 440 kts 203°
2026-05-01 08:37 49.85183 18.56908 21867 ft 446 kts 217°
2026-05-01 08:37 49.82916 18.53592 22411 ft 450 kts 231°
2026-05-01 08:37 49.80989 18.49733 22932 ft 454 kts 234°
2026-05-01 08:37 49.79094 18.45861 23461 ft 459 kts 234°
2026-05-01 08:38 49.77150 18.41906 23991 ft 463 kts 234°
2026-05-01 08:38 49.75188 18.37933 24462 ft 466 kts 234°
2026-05-01 08:38 49.73472 18.34471 24877 ft 468 kts 233°
2026-05-01 08:38 49.71486 18.30473 25386 ft 469 kts 233°
2026-05-01 08:39 49.69481 18.26447 25830 ft 473 kts 233°
2026-05-01 08:39 49.67466 18.22406 26273 ft 476 kts 233°
2026-05-01 08:39 49.65460 18.18391 26708 ft 479 kts 233°
2026-05-01 08:39 49.63415 18.14302 27133 ft 481 kts 233°
2026-05-01 08:40 49.59290 18.06074 27952 ft 487 kts 233°
2026-05-01 08:40 49.57201 18.01918 28338 ft 490 kts 233°
2026-05-01 08:40 49.55128 17.97799 28736 ft 492 kts 233°
2026-05-01 08:41 49.53021 17.93621 29075 ft 495 kts 233°
2026-05-01 08:41 49.50894 17.89409 29446 ft 497 kts 233°
2026-05-01 08:41 49.48760 17.85190 29807 ft 500 kts 233°
2026-05-01 08:41 49.46635 17.80993 30098 ft 504 kts 233°
2026-05-01 08:42 49.44470 17.76727 30451 ft 506 kts 233°
2026-05-01 08:42 49.42294 17.72445 30749 ft 508 kts 233°
2026-05-01 08:42 49.40102 17.68139 31045 ft 511 kts 233°
2026-05-01 08:42 49.37931 17.63881 31326 ft 513 kts 233°
2026-05-01 08:43 49.35721 17.59552 31657 ft 514 kts 233°
2026-05-01 08:43 49.33492 17.55254 32023 ft 514 kts 230°
2026-05-01 08:43 49.31017 17.51287 32388 ft 514 kts 222°
2026-05-01 08:43 49.28272 17.47727 32674 ft 517 kts 218°
2026-05-01 08:44 49.25519 17.44281 33024 ft 516 kts 218°
2026-05-01 08:44 49.22740 17.40798 33398 ft 516 kts 218°
2026-05-01 08:44 49.19948 17.37296 33782 ft 516 kts 219°
2026-05-01 08:44 49.17203 17.33853 34132 ft 515 kts 218°
2026-05-01 08:45 49.14429 17.30377 34471 ft 515 kts 218°
2026-05-01 08:45 49.11655 17.26907 34780 ft 514 kts 219°
2026-05-01 08:45 49.08891 17.23453 35062 ft 513 kts 219°
2026-05-01 08:45 49.06118 17.19995 35361 ft 511 kts 219°
2026-05-01 08:46 49.03387 17.16594 35669 ft 510 kts 219°